TimeEST,TemperatureF,Dew PointF,Humidity,Sea Level PressureIn,VisibilityMPH,Wind Direction,Wind SpeedMPH,Gust SpeedMPH,PrecipitationIn,Events,Conditions,WindDirDegrees,DateUTC
12:53 AM,32.0,27.0,82,30.17,10.0,East,6.9,-,N/A,,Overcast,90,2012-12-09 05:53:00
1:13 AM,32.0,28.4,87,30.14,10.0,East,8.1,-,N/A,,Overcast,90,2012-12-09 06:13:00
1:53 AM,33.1,28.0,82,30.16,10.0,East,5.8,-,N/A,,Overcast,100,2012-12-09 06:53:00
2:53 AM,33.1,28.9,85,30.16,10.0,ESE,6.9,-,N/A,,Overcast,110,2012-12-09 07:53:00
3:51 AM,33.8,28.4,81,30.12,9.0,East,3.5,-,N/A,,Overcast,80,2012-12-09 08:51:00
3:53 AM,33.1,28.9,85,30.15,8.0,East,3.5,-,N/A,,Overcast,80,2012-12-09 08:53:00
4:28 AM,33.8,30.2,87,30.11,2.0,East,4.6,-,0.00,Snow,Light Snow,80,2012-12-09 09:28:00
4:39 AM,33.8,30.2,87,30.11,5.0,East,5.8,-,0.00,Snow,Light Snow,80,2012-12-09 09:39:00
4:53 AM,33.1,30.0,89,30.14,8.0,East,5.8,-,0.00,,Overcast,100,2012-12-09 09:53:00
5:53 AM,34.0,28.9,82,30.12,10.0,East,11.5,-,0.00,,Overcast,90,2012-12-09 10:53:00
6:53 AM,34.0,28.9,82,30.11,10.0,East,8.1,-,0.00,,Overcast,90,2012-12-09 11:53:00
7:03 AM,33.8,30.2,87,30.08,10.0,East,8.1,-,N/A,,Overcast,90,2012-12-09 12:03:00
7:53 AM,34.0,30.0,85,30.10,10.0,East,9.2,-,N/A,,Overcast,100,2012-12-09 12:53:00
8:53 AM,35.1,30.0,82,30.04,10.0,East,9.2,19.6,N/A,,Overcast,100,2012-12-09 13:53:00
9:13 AM,35.6,30.2,81,30.02,10.0,East,8.1,17.3,N/A,,Overcast,100,2012-12-09 14:13:00
9:53 AM,36.0,30.9,82,30.05,10.0,East,10.4,-,N/A,,Overcast,100,2012-12-09 14:53:00
10:00 AM,35.6,30.2,81,30.01,10.0,East,13.8,-,N/A,,Overcast,100,2012-12-09 15:00:00
10:53 AM,37.0,30.9,79,30.02,10.0,East,9.2,-,N/A,,Overcast,100,2012-12-09 15:53:00
11:53 AM,37.9,32.0,79,29.97,10.0,ESE,6.9,-,0.00,Rain,Light Rain,110,2012-12-09 16:53:00
12:14 PM,37.4,33.8,87,29.92,2.0,ESE,13.8,25.3,0.03,Rain,Rain,110,2012-12-09 17:14:00
12:53 PM,36.0,34.0,93,29.92,1.8,East,6.9,-,0.04,Rain,Light Rain,80,2012-12-09 17:53:00
1:22 PM,35.6,33.8,93,29.86,2.0,East,8.1,-,0.02,Rain,Light Rain,80,2012-12-09 18:22:00
1:53 PM,37.0,35.1,93,29.87,2.0,East,8.1,-,0.02,Rain,Light Rain,80,2012-12-09 18:53:00
2:00 PM,37.4,35.6,93,29.84,4.0,East,8.1,-,0.00,Rain,Light Rain,80,2012-12-09 19:00:00
2:53 PM,37.0,35.1,93,29.84,4.0,East,6.9,-,0.00,,Overcast,100,2012-12-09 19:53:00
3:21 PM,37.4,35.6,93,29.79,1.8,East,8.1,-,0.01,Rain,Light Rain,100,2012-12-09 20:21:00
3:53 PM,37.0,36.0,96,29.81,1.2,East,8.1,-,0.01,Rain,Light Rain,100,2012-12-09 20:53:00
4:53 PM,37.9,37.0,97,29.80,1.0,East,4.6,-,0.01,Rain,Light Rain,80,2012-12-09 21:53:00
5:31 PM,37.4,37.4,100,29.77,1.5,East,4.6,-,0.00,Rain,Light Rain,100,2012-12-09 22:31:00
5:53 PM,37.9,37.0,97,29.79,1.8,East,5.8,-,0.01,Rain,Light Rain,90,2012-12-09 22:53:00
6:53 PM,37.9,37.9,100,29.77,2.0,ENE,3.5,-,0.01,,Overcast,70,2012-12-09 23:53:00
7:28 PM,37.4,37.4,100,29.74,1.5,East,3.5,-,N/A,,Overcast,100,2012-12-10 00:28:00
7:53 PM,37.9,37.9,100,29.74,1.8,East,3.5,-,N/A,,Overcast,100,2012-12-10 00:53:00
8:21 PM,37.4,37.4,100,29.72,2.0,ESE,4.6,-,N/A,,Overcast,120,2012-12-10 01:21:00
8:28 PM,37.4,37.4,100,29.71,1.8,SE,3.5,-,N/A,,Overcast,140,2012-12-10 01:28:00
8:53 PM,39.0,37.9,96,29.73,1.2,Calm,Calm,-,N/A,,Overcast,0,2012-12-10 01:53:00
9:21 PM,39.2,39.2,100,29.69,0.8,Calm,Calm,-,N/A,,Overcast,0,2012-12-10 02:21:00
9:53 PM,39.0,39.0,100,29.70,0.5,Calm,Calm,-,N/A,Fog,Fog,0,2012-12-10 02:53:00
10:53 PM,39.0,39.0,100,29.70,0.8,SW,3.5,-,N/A,,Mist,230,2012-12-10 03:53:00
11:53 PM,39.9,39.0,97,29.68,0.5,SW,5.8,-,N/A,Fog,Fog,230,2012-12-10 04:53:00